Regional Weather Roundup
Issued by NWS

Home | Current Version | Previous Version | Text Only | Print | Product List | Glossary Off
Versions: 1 2 3 4 5 6 7 8 9 10 11 12 13 14 15 16 17 18 19 20 21 22 23 24 25 26 27 28 29 30 31 32 33 34 35 36 37 38 39 40 41 42 43 44 45 46 47 48 49 50

238
ASUS45 KABQ 260810
RWRNM
NEW MEXICO REGIONAL WEATHER ROUNDUP
NATIONAL WEATHER SERVICE ALBUQUERQUE NM
200 AM MDT THU MAY 26 2016

NOTE: "FAIR" MEANS FEW OR NO CLOUDS BELOW 12,000 FEET AGL WITH NO
       SIGNIFICANT WEATHER OR OBSTRUCTIONS TO VISION.

      THIS PRODUCT IS RELEASED AS TWO VERSIONS.  ONE VERSION NEAR
      THE TOP OF THE HOUR CONTAINING PRELIMINARY DATA FROM ALBUQUERQUE
      AND OTHER STATIONS.  A FINAL VERSION WITH ADDITIONAL DATA IS
      ISSUED ABOUT 10 MINUTES AFTER THE HOUR.

NMZ501-503-504-510>518-260900-
NORTHWEST PLATEAU/NORTHCENTRAL MOUNTAINS

CITY           SKY/WX    TMP DP  RH WIND       PRES   REMARKS
FARMINGTON     FAIR      51  13  21 CALM      29.97F
LOS ALAMOS     FAIR      56  22  26 CALM      30.08S
SANTA FE       FAIR      56  22  26 NE5       30.02F
TAOS           FAIR      45  19  36 CALM      30.07F
ANGEL FIRE     FAIR      31  23  71 CALM      30.15F

$$
NMZ402-403-502-505>509-260900-
WESTCENTRAL MOUNTAINS/SOUTHWEST MOUNTAINS

CITY           SKY/WX    TMP DP  RH WIND       PRES   REMARKS
GALLUP         FAIR      47  19  33 S6        30.06F
GRANTS         FAIR      42  17  36 CALM      30.08F
SILVER CITY      N/A     54  16  22 NW8       30.07S

$$
NMZ407-409-411-412-260900-
SOUTHERN DESERTS

CITY           SKY/WX    TMP DP  RH WIND       PRES   REMARKS
LORDSBURG      FAIR      55  18  22 E5        30.01S
DEMING         FAIR      69  20  15 W15       30.00S
LAS CRUCES     FAIR      65  13  13 W13       30.00F
HOLLOMAN AFB   FAIR      65  13  13 S7        29.96S
ALAMOGORDO     FAIR      66  14  13 S7        29.99S
T OR C         FAIR      65  16  15 SW8       29.98S

$$
NMZ519>523-260900-
CENTRAL VALLEYS/CENTRAL HIGHLANDS

CITY           SKY/WX    TMP DP  RH WIND       PRES   REMARKS
ALBUQUERQUE    FAIR      56  14  19 S3        29.98F
DOUBLE EAGLE   FAIR      48  17  29 W8        30.02S
MORIARTY ARPT  FAIR      42  17  36 S3        30.03F
CLINES CORNERS FAIR      46  15  28 SW9       30.05F
BELEN          FAIR      58  12  16 SW7       29.98S
SOCORRO        FAIR      58  19  21 S6        29.98S

$$
NMZ524>526-539-540-260900-
SOUTHCENTRAL MOUNTAINS

CITY           SKY/WX    TMP DP  RH WIND       PRES   REMARKS
RUIDOSO          N/A     55  12  18 SW12      30.11F

$$
NMZ527>531-260900-
NORTHEAST HIGHLANDS/NORTHEAST PLAINS

CITY           SKY/WX    TMP DP  RH WIND       PRES   REMARKS
LAS VEGAS      FAIR      53  14  21 SW6       30.03F
RATON          FAIR      41  22  46 N8        30.01S
CLAYTON        FAIR      58  23  26 W9        29.91F

$$
NMZ532>537-260900-
EASTCENTRAL PLAINS

CITY           SKY/WX    TMP DP  RH WIND       PRES   REMARKS
TUCUMCARI      FAIR      59  27  29 W7        29.87F
CANNON AFB     FAIR      60  31  33 S5        29.92F
CLOVIS AIRPORT FAIR      61  34  36 S3        29.92F

$$
NMZ028-029-538-260900-
SOUTHEAST PLAINS

CITY           SKY/WX    TMP DP  RH WIND       PRES   REMARKS
ROSWELL        FAIR      63  20  19 SW8       29.91F
ARTESIA        FAIR      64  32  29 MISG      29.91S
CARLSBAD       FAIR      65  51  60 S7        29.89F
HOBBS          FAIR      72  64  78 SE13      29.93S


$$




USA.gov is the U.S. government's official web portal to all federal, state and local government web resources and services.